Cozumel, Mexico

11:04 PM EST on November 22, 2017 (GMT -0500)
Cozumel

Weather History for MMCZ - August, 2013

Change the Weather History Date:

Friday, August 30, 2013

  Actual Average Record
Temperature  
Mean Temperature 76 °F -  
Max Temperature 84 °F 88 °F 93 °F (1999)
Min Temperature 69 °F 75 °F 69 °F (2013)
Cooling Degree Days 12    
Growing Degree Days 26 (Base 50)    
Moisture  
Dew Point 73 °F    
Average Humidity 91    
Maximum Humidity 100    
Minimum Humidity 70    
Precipitation  
Precipitation 0.00 in - - ()
Sea Level Pressure  
Sea Level Pressure 29.96 in    
Wind  
Wind Speed 3 mph ()    
Max Wind Speed 14 mph    
Max Gust Speed -    
Visibility 7.4 miles    
Events Rain    
Averages and records for this station are not official NWS values.
T = Trace of Precipitation, MM = Missing Value Source: Averaged Metar Reports

Daily Weather History Graph

Daily Weather History Graph

Search for Another Location

Airport or City:

Trip Planner

Search our weather history database for the weather conditions in past years. The results will help you decide how hot, cold, wet, or windy it might be!

Date:

Astronomy

Aug. 30, 2013 Rise Set
Actual Time 6:31 AM CDT 7:04 PM CDT
Civil Twilight 6:08 AM CDT 7:27 PM CDT
Nautical Twilight 5:42 AM CDT 7:53 PM CDT
Astronomical Twilight 5:15 AM CDT 8:20 PM CDT
Moon 1:32 AM CDT (8/30) 2:58 PM CDT (8/30)
Length of Visible Light 13h 18m
Length of Day
12h 33m
Waning Crescent, 29% of the Moon is Illuminated
Aug 30
Waning Crescent
Sep 5
New
Sep 12
First Quarter
Sep 19
Full
Sep 26
Last Quarter

Hourly Weather History & Observations

Time (CDT) Temp. Heat Index Dew Point Humidity Pressure Visibility Wind Dir Wind Speed Gust Speed Precip Events Conditions
12:42 AM 71.6 °F - 71.6 °F 100% 29.97 in 7.0 mi Calm Calm - N/A   Scattered Clouds
1:52 AM 71.6 °F - 71.6 °F 100% 29.99 in 6.0 mi South 4.6 mph - N/A Rain Light Rain
2:44 AM 71.6 °F - 71.6 °F 100% 29.97 in 7.0 mi Calm Calm - N/A   Overcast
3:45 AM 71.6 °F - 71.6 °F 100% 29.99 in 7.0 mi Calm Calm - N/A   Mostly Cloudy
4:45 AM 71.6 °F - 71.6 °F 100% 29.96 in 7.0 mi Calm Calm - N/A   Mostly Cloudy
5:43 AM 71.6 °F - 71.6 °F 100% 29.96 in 7.0 mi Calm Calm - N/A   Mostly Cloudy
6:41 AM 69.8 °F - 69.8 °F 100% 29.94 in 7.0 mi Calm Calm - N/A   Mostly Cloudy
7:45 AM 73.4 °F - 73.4 °F 100% 29.97 in 7.0 mi Calm Calm - N/A   Scattered Clouds
8:42 AM 78.8 °F - 75.2 °F 89% 29.97 in 8.0 mi North 5.8 mph - N/A   Scattered Clouds
9:43 AM 78.8 °F - 75.2 °F 89% 29.99 in 8.0 mi NNE 6.9 mph - N/A   Scattered Clouds
10:40 AM 78.8 °F - 75.2 °F 89% 29.98 in 8.0 mi NNE 9.2 mph - N/A   Scattered Clouds
11:45 AM 82.4 °F 88.2 °F 73.4 °F 74% 29.98 in 8.0 mi NE 6.9 mph - N/A   Scattered Clouds
12:43 PM 84.2 °F 90.9 °F 73.4 °F 70% 29.97 in 8.0 mi ENE 12.7 mph - N/A   Mostly Cloudy
1:41 PM 84.2 °F 92.3 °F 75.2 °F 74% 29.96 in 8.0 mi NE 13.8 mph - N/A   Mostly Cloudy
2:40 PM 84.2 °F 92.3 °F 75.2 °F 74% 29.94 in 8.0 mi ENE 12.7 mph - N/A   Scattered Clouds
3:48 PM 84.2 °F 92.3 °F 75.2 °F 74% 29.94 in 8.0 mi ENE 11.5 mph - N/A   Mostly Cloudy
4:41 PM 78.8 °F - 75.2 °F 89% 29.91 in 8.0 mi East 11.5 mph - N/A   Mostly Cloudy
5:41 PM 77.0 °F - 73.4 °F 89% 29.93 in 8.0 mi East 9.2 mph - N/A   Mostly Cloudy
6:47 PM 75.2 °F - 73.4 °F 94% 29.92 in 7.0 mi East 5.8 mph - N/A   Mostly Cloudy
7:52 PM 75.2 °F - 73.4 °F 94% 29.93 in 7.0 mi East 3.5 mph - N/A   Mostly Cloudy
8:41 PM 75.2 °F - 73.4 °F 94% 29.96 in 7.0 mi Calm Calm - N/A   Mostly Cloudy
9:40 PM 73.4 °F - 71.6 °F 94% 29.99 in 7.0 mi East 4.6 mph - N/A   Mostly Cloudy
10:40 PM 71.6 °F - 69.8 °F 94% 29.96 in 7.0 mi Calm Calm - N/A   Mostly Cloudy
11:40 PM 71.6 °F - 69.8 °F 94% 29.95 in 7.0 mi Calm Calm - N/A   Mostly Cloudy